weather.gov     
National Weather Service

Terminal Aerodrome Forecast
NWS Homepage
This page is being discontinued on March 12, 2014.
The same data is available at this site. Please update your bookmarks.
Thank you, and we apologize for the inconvenience.
Please send an email to SR-SRH.Webmaster@noaa.gov with any concerns.


Current Version
Previous Version:    01  02  03  04  05  06  07  08  09  10  11  12  13  14  15  16  17  18  19  20  21  22  23  24  25  26  27  28  
[Printable]
417
FTUS42 KRAH 310525
TAFFAY
TAF
KFAY 310525Z 3106/0106 VRB03KT P6SM SCT040 BKN090 OVC250
      TEMPO 3106/3109 3SM -SHRA BR BKN035
     FM311800 14005KT P6SM BKN050 OVC100 PROB30 3118/3122 4SM -SHRA
      BR BKN035
     FM010300 11005KT P6SM FEW020 OVC200=


417
FTUS42 KRAH 310525
TAFFAY
TAF
KFAY 310525Z 3106/0106 VRB03KT P6SM SCT040 BKN090 OVC250
      TEMPO 3106/3109 3SM -SHRA BR BKN035
     FM311800 14005KT P6SM BKN050 OVC100 PROB30 3118/3122 4SM -SHRA
      BR BKN035
     FM010300 11005KT P6SM FEW020 OVC200=




U.S. Dept. of Commerce
NOAA National Weather Service
1325 East West Highway
Silver Spring, MD 20910
E-mail: w-nws.webmaster@noaa.gov
Page last modified: May 16, 2007
NATIONAL WEATHER SERVICE: for Safety, for Work, for Fun - FOR LIFE